Overview Statistics Trail Chart Weather Telemetry Raw packets
 

This is the latest recevied weather packets stored in our database for station/object NO9B. If no packets are shown the sender has not sent any weather packets the latest 10 day(s).

<< 71 72 73 74 75 76 77 >>
Time Temp. Humidity Pressure Rain* Wind** Luminosity Snow
1788181014 22.78° C 90% 1013.8 hPa 0 mm - 28 W/m² -
1788180710 22.78° C 90% 1014 hPa 0 mm - 28 W/m² -
1788180406 22.22° C 90% 1014 hPa 0 mm - 15 W/m² -
1788180102 22.22° C 91% 1014.3 hPa 0 mm - 8 W/m² -
1788179802 22.22° C 92% 1014.3 hPa 0 mm - 6 W/m² -
1788179500 22.22° C 91% 1014.3 hPa 0 mm - 6 W/m² -
1788179200 22.22° C 93% 1014.4 hPa 0 mm - 8 W/m² -
1788178896 22.22° C 93% 1014.3 hPa 0 mm - 9 W/m² -
1788178595 22.22° C 93% 1014 hPa 0 mm - 7 W/m² -
1788178292 22.22° C 94% 1014 hPa 0 mm - 7 W/m² -
1788177987 22.22° C 95% 1014.1 hPa 0 mm - 3 W/m² -
1788177682 21.67° C 95% 1014.3 hPa 0 mm - 3 W/m² -
1788177378 21.67° C 95% 1014.6 hPa 0 mm - 3 W/m² -
1788177073 21.67° C 95% 1014.6 hPa 0 mm - 2 W/m² -
1788176772 22.22° C 95% 1014.4 hPa 0.51 mm - 1 W/m² -
1788176467 22.22° C 95% 1014.5 hPa 0.51 mm - 1 W/m² -
1788176166 22.22° C 95% 1014.6 hPa 0.51 mm - 1 W/m² -
1788175862 22.22° C 95% 1014.3 hPa 1.27 mm - 1 W/m² -
1788175561 22.22° C 95% 1014.6 hPa 0 mm - 0 W/m² -
1788175256 22.22° C 95% 1014.5 hPa 0 mm - 0 W/m² -
1788174952 21.67° C 95% 1014.5 hPa 0 mm - 0 W/m² -
1788174648 21.67° C 96% 1014.3 hPa 0 mm - 0 W/m² -
1788174343 21.67° C 96% 1014.3 hPa 0 mm - 0 W/m² -
1788174038 21.67° C 96% 1014.5 hPa 0 mm - 0 W/m² -
1788173737 21.67° C 96% 1014.1 hPa 1.78 mm - 0 W/m² -

* Rain latest hour (hover to see other rain measurements)
** Current wind speed in m/s (hover to see current wind gust speed)